Temp
32 33 33 34 35 36 35 35 35 34 33 32 33 33 33 31 31 32 31 31 31 31 31 30 29 28 28 27 26 25 25 24 24 25 25 27 27 27 27 27 25 25 25 25
32 32 35 35 35 35 34 34 35 34 33 33 34 34 34 33 31 33 32 32 32 32 32 30 29 28 28 27 26 25 25 24 25 26 26 26 28 28 28 27 26 26 25 25
33 33 35 35 34 34 35 35 35 34 33 34 33 34 34 34 33 32 33 33 33 32 32 31 29 29 28 28 26 26 25 25 25 26 26 25 26 27 27 27 27 26 25 25
33 35 34 34 33 34 34 36 35 34 34 34 34 35 34 34 33 32 32 33 33 33 32 32 30 29 29 28 27 27 25 25 25 25 26 27 27 28 28 28 28 27 26 26
32 33 33 32 33 35 34 36 35 35 34 35 35 34 37 35 33 33 33 33 34 33 33 32 31 30 29 29 28 27 26 25 25 25 26 26 27 28 28 28 27 26 26 25
33 34 34 34 35 35 35 34 34 34 35 34 35 35 36 36 35 35 34 34 34 34 34 33 32 31 30 29 28 28 26 25 25 24 25 26 27 28 28 28 27 27 28 27
31 32 33 34 33 34 34 34 32 32 33 33 36 34 35 37 37 36 35 35 34 34 34 34 33 31 30 30 29 28 26 25 25 24 25 25 26 26 27 26 27 28 28 28
30 30 32 33 33 33 33 34 33 31 33 35 36 33 36 37 37 38 37 36 35 34 35 34 34 32 31 30 30 29 27 26 25 25 25 25 26 27 27 26 28 28 28 28
31 31 33 33 34 34 33 33 35 34 35 35 36 36 37 37 37 37 37 37 36 35 35 35 34 33 32 31 30 29 28 26 26 26 25 25 25 26 27 27 26 27 27 28
31 30 32 33 33 33 34 35 33 34 32 31 34 35 36 36 37 37 37 37 37 36 36 35 35 33 32 31 30 29 28 27 27 26 26 25 25 25 26 26 25 27 27 26
31 30 31 32 31 32 32 32 33 34 34 33 33 35 37 37 37 36 37 37 37 36 36 36 36 34 32 31 31 30 29 27 27 26 26 26 26 26 25 26 26 26 26 25
30 30 29 30 32 33 33 32 33 32 32 34 35 35 38 36 36 35 36 34 36 37 37 36 36 34 32 31 31 30 29 28 27 26 26 26 26 26 26 26 26 26 26 25
28 29 29 29 30 31 31 33 33 34 34 33 32 34 37 36 34 34 34 33 33 35 35 36 35 34 32 31 30 30 28 28 27 26 26 26 26 26 26 26 26 26 26 26
22 28 29 29 30 31 29 31 33 33 32 33 33 34 36 36 35 32 33 31 32 32 34 35 34 33 32 30 29 29 29 28 28 27 26 26 26 27 27 27 26 25 26 26
25 26 28 29 31 31 31 31 31 31 33 33 34 34 35 36 35 31 30 30 30 30 32 33 33 31 30 29 28 27 27 27 28 27 26 26 26 26 26 27 26 26 25 25
24 25 26 27 30 30 30 31 32 32 32 32 33 34 35 32 31 29 27 28 27 27 24 23 27 30 29 28 28 27 26 26 26 26 26 26 26 26 25 26 26 25 25 25
22 24 25 27 29 29 28 30 31 31 32 32 32 33 34 28 24 22 23 22 21 20 19 19 20 20 21 27 26 26 25 25 25 25 25 25 25 25 25 25 25 25 25 25
20 21 24 27 28 26 29 29 30 30 30 29 29 24 25 20 18 17 18 19 18 18 18 18 18 18 18 18 21 25 25 25 25 25 25 25 24 24 24 24 25 24 25 25
21 21 24 25 27 26 25 26 27 27 25 23 26 22 19 21 21 17 17 16 16 16 16 16 17 16 16 17 18 21 24 23 24 24 24 25 25 24 24 23 23 23 23 24
19 21 21 26 25 25 26 23 23 24 25 24 23 23 20 21 23 18 16 16 16 15 15 15 16 16 16 16 17 18 16 18 19 20 22 21 20 21 22 23 23 23 23 24
19 18 21 24 25 22 22 22 23 24 24 23 23 22 22 22 21 17 16 16 16 16 16 16 17 16 16 16 16 16 16 16 16 17 18 19 19 19 20 21 21 22 23 23
22 21 21 24 24 23 18 21 21 16 21 20 20 21 19 17 17 17 17 17 17 17 17 18 17 17 17 17 18 18 18 18 17 17 17 17 18 18 19 19 20 20 21 22
18 19 20 20 20 15 13 13 13 15 18 19 18 18 18 17 17 17 17 17 18 18 17 18 18 18 17 17 18 18 17 17 18 19 18 18 18 18 18 19 19 20 20 20
16 16 18 19 14 12 12 12 12 14 18 20 20 18 17 17 18 17 18 17 18 18 19 19 19 18 17 16 17 17 16 18 19 19 19 19 20 20 19 20 20 20 19 18
14 15 16 13 13 13 12 12 12 13 17 19 19 19 20 19 18 17 17 16 17 17 18 18 19 18 17 17 16 16 16 17 19 20 20 20 21 20 19 18 19 19 17 17
14 13 15 16 15 14 12 11 12 12 14 17 18 19 19 19 19 20 20 18 18 18 16 16 17 17 16 17 16 16 16 17 17 19 20 19 21 22 21 20 20 18 17 16
Height
763 770 772 758 753 749 758 760 767 767 768 774 773 773 767 775 778 780 783 788 792 795 800 807 813 817 822 827 831 834 838 842 845 847 849 850 851 853 855 857 859 861 862 864
764 770 751 746 748 755 761 766 766 767 765 771 767 769 760 764 773 771 775 781 786 790 794 802 809 815 819 824 829 833 836 841 843 846 848 849 849 852 854 857 859 860 862 864
759 754 745 751 755 763 759 764 760 767 767 763 769 766 762 760 764 769 768 772 778 783 789 797 805 811 816 820 826 831 835 838 842 844 847 850 851 852 855 857 858 860 862 864
751 739 747 753 761 757 765 747 756 764 772 776 763 776 759 757 765 767 768 769 771 777 784 791 800 807 811 816 822 827 833 836 840 842 845 847 848 849 851 854 856 859 862 864
751 745 751 759 754 748 758 738 756 758 766 765 763 777 746 748 764 761 759 760 762 767 775 783 791 800 806 812 817 823 829 834 837 840 842 846 847 848 851 852 855 858 861 863
741 731 737 743 739 741 743 755 760 761 762 780 759 765 751 744 745 746 749 753 756 759 767 775 785 793 801 807 812 818 824 829 834 837 840 843 846 847 847 851 853 855 857 859
749 741 739 735 747 741 749 761 785 791 782 785 746 768 753 731 730 731 737 742 747 753 759 767 776 785 793 801 807 813 819 824 830 834 838 840 843 847 849 850 851 852 854 856
755 759 742 735 737 750 753 752 767 798 780 766 742 772 748 724 719 717 722 729 738 747 751 757 766 776 785 793 801 808 813 818 824 829 833 837 840 843 847 848 848 851 853 855
742 747 728 729 730 733 748 756 737 755 743 758 742 742 727 722 722 722 724 725 731 737 742 749 757 766 776 785 793 800 807 812 816 823 828 833 836 839 842 845 848 849 851 852
731 750 728 730 731 731 732 731 761 749 779 785 758 751 747 730 729 724 725 723 724 728 735 742 750 759 767 775 784 793 800 805 810 817 822 827 832 835 839 843 846 848 849 852
733 743 735 734 742 743 746 749 741 739 748 766 774 752 714 724 720 726 721 715 716 722 727 734 743 752 763 771 777 786 794 799 804 811 817 821 826 831 835 838 841 845 847 848
737 738 748 745 730 723 725 737 734 751 760 746 745 744 701 716 721 721 717 720 714 715 720 728 737 747 760 766 772 779 787 793 798 804 811 816 821 826 829 832 835 839 842 845
746 746 751 747 739 735 738 728 727 729 732 746 761 746 706 714 723 723 722 723 723 719 722 727 736 744 752 760 767 774 781 786 793 799 804 810 815 819 822 826 830 833 837 839
767 741 740 741 736 727 746 735 725 727 742 742 739 738 714 718 721 730 726 729 727 728 727 728 736 744 752 759 765 771 776 782 787 794 799 802 807 812 816 820 824 828 830 834
757 753 737 730 719 716 723 730 730 734 727 737 731 730 720 713 718 734 734 735 735 736 734 733 739 747 753 758 764 770 774 779 784 789 793 797 800 805 811 814 817 822 824 826
758 756 747 740 724 726 728 721 721 724 728 729 726 726 710 720 729 741 748 742 746 750 756 757 750 749 754 758 762 766 771 775 781 785 790 794 797 800 803 807 810 813 817 820
772 761 750 742 725 729 740 721 721 721 719 723 737 726 715 740 756 763 762 761 764 767 768 767 767 765 763 758 762 765 769 772 776 782 787 791 794 797 799 801 802 803 807 812
779 772 756 739 732 755 721 715 715 720 725 733 732 748 745 766 774 776 774 771 773 773 773 772 771 769 769 767 765 765 767 771 774 777 780 786 791 796 796 797 798 801 803 805
772 774 756 748 738 735 741 735 735 735 749 753 742 758 767 765 766 779 777 777 777 777 776 776 776 774 772 769 768 767 767 772 775 778 779 782 787 789 792 794 795 797 799 800
774 771 770 741 744 745 725 744 746 743 751 748 750 755 765 765 762 780 780 780 781 781 781 780 778 776 773 773 773 771 771 772 774 780 774 770 786 784 789 791 791 794 794 794
772 779 764 750 740 747 747 750 747 757 755 747 750 755 757 761 762 777 780 782 781 781 781 780 778 777 777 778 777 775 776 778 780 779 777 775 781 779 788 786 788 790 789 789
752 757 759 746 741 752 769 756 758 772 754 757 758 759 766 771 774 776 779 781 782 782 782 781 781 780 779 778 779 776 778 781 783 784 784 785 786 771 776 781 778 782 783 784
770 763 754 758 759 777 782 781 782 774 766 762 766 768 770 774 777 779 781 783 783 784 784 783 782 781 783 781 783 777 780 778 780 783 785 784 782 781 785 781 780 780 779 779
777 775 767 765 785 787 787 788 785 778 770 766 768 773 776 779 780 782 783 784 785 784 784 784 785 785 785 787 783 782 781 780 780 782 783 784 786 785 780 779 780 777 781 779
786 782 774 786 788 790 791 793 790 787 779 776 777 777 778 781 784 786 788 789 789 788 787 787 787 787 787 786 786 785 781 782 782 781 782 784 780 778 781 780 779 776 780 778
785 787 780 774 782 784 793 796 793 792 788 783 781 782 785 785 785 784 786 788 789 789 790 789 789 790 790 789 789 787 784 786 786 783 781 780 778 777 781 781 781 780 780 781
Wind_Speed
17 13 16 19 18 10 6 9 7 5 2 7 8 7 9 13 15 17 17 18 18 17 19 20 21 19 19 19 18 17 16 15 13 11 9 10 12 10 8 7 6 6 7 8
15 20 20 17 16 15 10 10 9 5 5 6 3 8 10 14 17 18 19 19 19 18 18 21 22 22 21 21 19 19 18 17 16 12 10 7 11 12 8 7 6 6 8 8
23 23 21 18 18 15 17 14 9 7 5 10 7 14 10 12 15 16 17 18 18 19 20 19 22 24 24 24 22 20 20 18 17 14 11 10 9 10 10 8 8 9 8 7
24 23 23 20 20 19 19 16 9 8 8 6 2 1 13 13 16 19 20 19 20 21 20 19 23 24 25 25 24 22 20 20 19 17 15 12 13 14 12 11 8 8 7 6
24 23 20 22 22 20 18 9 12 12 12 11 12 7 5 14 14 19 22 23 22 22 22 22 26 27 26 25 26 25 22 21 20 19 16 15 13 13 12 11 9 8 8 6
24 18 18 24 22 21 19 5 9 11 13 13 15 7 7 11 14 18 20 23 22 22 22 23 28 28 28 27 26 26 25 24 22 20 20 18 15 13 14 12 10 10 9 9
24 22 18 17 22 21 23 17 10 12 12 13 6 7 13 1 5 9 21 24 24 22 22 22 23 28 28 29 28 26 25 25 24 22 22 22 19 16 15 15 13 10 9 10
19 25 23 18 26 22 23 23 15 18 13 14 13 7 6 3 2 8 13 20 23 23 22 23 25 30 31 30 29 28 27 26 26 26 24 23 21 19 17 16 15 14 10 9
21 24 25 17 20 23 23 24 23 22 17 13 12 14 9 10 5 8 12 15 21 24 24 24 26 31 32 31 31 31 30 28 28 28 26 25 23 21 19 15 17 15 12 11
9 14 16 22 16 19 21 18 20 16 23 19 17 16 8 12 9 6 8 13 18 23 24 23 21 29 32 33 33 32 32 32 30 28 28 28 26 24 21 17 16 17 14 13
12 12 16 14 21 23 15 15 18 18 19 16 16 16 12 14 2 4 4 8 15 19 22 22 20 29 31 30 31 31 32 32 32 30 29 28 29 26 22 20 18 18 17 15
15 10 14 21 20 21 25 24 22 16 23 18 15 14 8 8 1 5 5 3 8 18 21 21 21 26 26 28 29 30 31 31 31 31 29 27 27 29 27 24 22 19 16 17
0 12 13 18 11 12 19 23 25 23 17 20 17 17 12 9 5 6 6 5 3 10 15 18 18 19 26 28 28 29 29 31 31 30 31 29 27 28 29 27 25 21 18 17
4 14 16 15 18 16 20 23 24 24 18 19 20 22 15 9 1 6 7 5 3 7 12 15 16 14 21 24 25 26 27 28 29 30 30 30 30 29 28 27 26 25 22 20
5 11 16 21 14 13 20 20 25 25 25 22 18 22 19 14 3 7 6 6 6 5 7 11 12 11 15 16 18 20 21 23 25 28 29 30 29 28 26 25 26 26 25 24
8 7 7 15 18 15 16 21 19 25 25 22 22 16 2 9 6 5 5 5 7 7 8 10 9 4 10 13 14 16 18 19 20 22 26 25 25 26 27 26 25 26 27 26
9 6 7 14 14 17 20 19 18 15 16 19 22 20 7 7 9 7 5 9 8 7 8 8 6 7 7 3 12 15 15 16 19 19 20 21 23 25 25 25 26 27 27 26
10 8 7 9 7 16 5 3 6 10 5 4 2 8 10 11 11 10 9 7 8 8 8 8 8 9 8 6 3 9 11 14 17 17 18 17 18 21 20 20 23 21 21 23
14 9 6 9 12 7 8 7 7 14 10 2 2 8 11 11 12 9 9 9 8 8 9 10 10 10 10 11 6 3 5 10 11 11 9 11 15 17 17 19 17 15 16 17
12 11 7 10 12 13 12 8 1 4 8 7 6 10 11 8 5 3 5 7 8 9 9 9 10 11 14 13 12 13 15 17 10 2 8 3 11 6 14 16 12 16 18 19
9 7 13 12 11 6 6 2 4 7 4 6 6 7 8 5 3 11 7 6 8 7 7 7 11 12 12 11 13 17 17 14 6 4 2 9 10 9 13 11 12 14 17 19
8 9 8 13 12 8 10 4 4 4 4 7 7 7 11 13 12 10 8 6 6 7 7 8 9 11 11 10 11 13 14 11 9 5 2 1 2 1 10 7 8 10 12 15
4 6 5 4 4 5 7 8 7 6 5 11 11 10 11 11 11 10 8 7 6 7 7 6 8 9 9 10 8 11 10 10 10 9 7 7 5 3 6 2 1 4 5 7
2 4 1 6 5 6 7 8 9 10 9 12 14 14 12 11 9 9 8 7 6 7 9 9 9 10 9 8 11 11 10 8 8 9 9 6 3 3 7 5 4 4 4 5
2 7 4 4 6 6 7 7 8 7 7 11 12 11 11 10 10 8 6 5 4 3 3 4 4 6 7 8 9 9 11 11 7 8 9 10 9 11 9 9 8 8 6 8
0 3 3 2 9 4 6 4 6 7 8 8 8 9 9 8 7 5 5 5 2 2 2 4 3 2 2 2 4 6 9 9 10 10 10 11 13 13 11 11 8 8 8 8
Wind_Direction
200 213 215 208 219 238 295 242 180 119 121 215 222 240 196 180 196 189 187 187 189 191 179 179 184 178 175 179 179 180 179 174 168 173 174 178 173 163 156 154 147 157 157 162
191 222 213 225 222 225 226 229 197 129 147 236 217 249 206 186 201 202 194 187 190 190 183 180 184 184 186 184 188 184 182 181 177 180 183 201 176 166 162 152 148 163 161 162
214 214 223 218 222 228 232 229 219 272 161 228 268 245 201 194 194 202 205 193 192 192 188 184 184 190 191 190 193 195 190 188 189 182 180 171 173 169 169 167 158 155 158 167
222 223 213 216 226 216 224 219 261 221 242 260 234 316 177 179 194 195 202 200 195 192 195 186 188 193 194 195 194 197 196 191 194 190 184 186 183 180 180 177 167 168 178 193
213 220 203 216 217 213 239 219 227 246 250 262 214 250 146 172 200 201 202 204 200 192 191 194 192 192 195 196 196 197 197 199 199 197 195 190 200 189 182 179 174 191 192 207
224 204 217 223 219 224 227 212 230 235 247 247 247 235 253 180 220 200 200 202 202 196 194 193 195 195 198 197 198 199 195 200 201 202 197 199 198 202 182 184 182 196 202 206
215 208 216 234 218 222 220 210 214 216 216 235 197 240 249 193 164 214 195 201 199 200 197 193 191 195 199 201 200 199 198 199 202 204 205 202 200 204 205 193 199 199 204 209
208 207 203 203 221 202 215 221 227 221 226 227 180 238 228 89 357 182 202 198 199 199 200 197 195 195 197 201 200 201 199 201 200 205 210 209 206 206 212 211 208 206 207 209
211 219 188 211 212 221 201 221 234 245 249 254 211 221 247 243 249 198 191 194 198 200 201 198 196 195 196 198 198 200 200 201 198 206 207 210 207 209 210 214 211 208 212 206
236 232 187 205 228 221 241 208 223 231 236 229 239 242 238 176 164 135 195 207 204 201 202 200 198 196 196 195 197 201 202 199 198 203 205 206 210 208 205 206 208 213 212 219
248 238 203 201 208 214 200 233 223 227 229 233 232 234 206 230 299 311 300 225 202 199 201 199 197 197 198 199 196 200 202 199 199 202 204 206 208 209 208 210 210 215 216 211
222 241 231 205 227 225 221 215 223 220 217 230 255 229 93 123 159 2 14 351 235 191 193 193 191 190 190 201 198 198 202 203 198 196 200 206 208 209 212 214 213 214 216 217
41 225 229 232 184 215 231 228 222 226 239 220 225 232 151 135 77 30 33 43 183 196 191 186 187 189 192 197 198 200 200 203 202 199 201 204 207 210 214 215 214 213 212 214
252 249 239 225 225 208 213 227 225 226 223 228 219 237 230 184 169 16 56 54 92 189 186 187 186 193 198 200 202 201 201 204 203 204 206 203 207 212 215 214 214 214 212 216
322 262 233 248 266 256 201 215 223 226 233 227 230 225 242 251 16 48 10 67 86 113 172 182 186 192 203 204 203 203 207 206 207 208 209 210 203 211 216 215 216 219 217 217
324 267 274 250 234 235 246 219 216 224 230 242 249 248 233 46 89 51 47 74 82 72 47 21 6 202 208 207 208 206 205 206 209 210 215 214 210 209 211 214 213 212 219 224
297 308 267 240 204 220 233 219 222 221 221 228 234 240 255 92 55 33 28 52 60 57 58 57 45 32 5 269 212 212 212 204 203 211 217 222 220 218 219 216 213 213 218 225
263 296 279 263 201 218 127 65 257 230 148 229 255 36 53 106 86 56 36 56 62 50 52 47 43 46 39 24 355 213 204 200 201 203 205 216 228 235 229 232 227 229 226 228
230 262 268 249 220 108 132 149 170 170 156 160 164 125 122 130 109 60 53 56 55 47 48 49 49 53 51 48 51 74 171 186 201 215 211 213 228 236 239 231 230 229 233 239
223 227 266 219 260 208 104 122 103 236 161 143 156 150 158 188 221 112 70 71 68 61 60 63 62 62 58 46 59 78 61 55 62 108 151 345 266 269 245 239 240 239 239 241
170 215 221 229 242 95 66 7 211 219 103 138 160 149 170 186 56 133 122 94 77 66 66 70 67 65 60 61 75 67 67 63 51 31 25 191 236 250 251 237 237 241 243 247
212 194 202 238 232 220 4 206 261 3 65 102 107 94 114 116 122 121 114 108 95 86 68 65 71 65 61 52 59 73 63 69 68 97 98 164 280 196 239 208 217 236 252 259
259 343 316 0 33 49 35 36 5 303 82 101 90 92 110 114 118 126 127 123 112 96 87 78 82 76 58 58 52 63 44 44 47 53 63 56 34 2 293 292 225 237 262 310
331 335 278 203 79 61 47 40 30 15 69 101 108 101 94 95 96 106 109 107 108 100 96 93 87 78 71 61 57 52 38 36 58 51 39 37 62 49 19 357 339 14 337 347
285 315 145 89 108 105 61 31 32 32 59 89 79 77 100 111 106 95 94 88 81 81 98 81 79 85 86 77 60 45 49 30 31 60 53 22 34 39 16 15 8 27 360 354
273 343 329 81 133 81 90 35 34 50 48 50 70 77 65 65 71 62 94 91 69 18 343 343 352 331 333 13 59 78 58 48 36 20 38 34 15 20 14 12 16 15 8 352